Weather History for Kelso-Longview, WA

Change the Weather History Date:

Wednesday, November 13, 2013

  Actual Average Record
Temperature  
Mean Temperature 50 °F -  
Max Temperature 57 °F 50 °F 66 °F (1999)
Min Temperature 42 °F 39 °F 32 °F (1997)
Degree Days  
Heating Degree Days 16    
Moisture  
Dew Point 44 °F    
Average Humidity 84    
Maximum Humidity 93    
Minimum Humidity 67    
Precipitation  
Precipitation 0.00 in - - ()
Sea Level Pressure  
Sea Level Pressure 30.45 in    
Wind  
Wind Speed 3 mph (SSE)    
Max Wind Speed 7 mph    
Max Gust Speed -    
Visibility 7 miles    
Events      
Averages and records for this station are not official NWS values.
T = Trace of Precipitation, MM = Missing Value Source: NWS Daily Summary

Daily Weather History Graph

Daily Weather History Graph

Search for Another Location

Airport:

Trip Planner

Search our weather history database for the weather conditions in past years. The results will help you decide how hot, cold, wet, or windy it might be!

Date:

Astronomy

Nov. 13, 2013 Rise Set
Actual Time 7:10 AM PST 4:41 PM PST
Civil Twilight 6:37 AM PST 5:13 PM PST
Nautical Twilight 6:01 AM PST 5:49 PM PST
Astronomical Twilight 5:26 AM PST 6:25 PM PST
Moon 2:42 PM PST (11/13) 2:56 AM PST (11/13)
Length of Visible Light 10h 35m
Length of Day
9h 31m
Waxing Gibbous, 85% of the Moon is Illuminated
Nov 13
Waxing Gibbous
Nov 17
Full
Nov 25
Last Quarter
Dec 2
New
Dec 9
First Quarter

Hourly Weather History & Observations

Time (PST) Temp. Windchill Dew Point Humidity Pressure Visibility Wind Dir Wind Speed Gust Speed Precip Events Conditions
12:15 AM 48.2 °F - 44.6 °F 87% 30.45 in 5.0 mi ESE 4.6 mph - N/A   Scattered Clouds
12:35 AM 46.4 °F - 44.6 °F 93% 30.45 in 4.0 mi Calm Calm - N/A   Mostly Cloudy
12:55 AM 46.4 °F - 42.8 °F 87% 30.45 in 5.0 mi Calm Calm - N/A   Mostly Cloudy
1:15 AM 46.4 °F - 42.8 °F 87% 30.46 in 3.0 mi North - - N/A   Overcast
1:35 AM 46.4 °F - 42.8 °F 87% 30.45 in 5.0 mi North - - N/A   Overcast
1:55 AM 46.4 °F - 42.8 °F 87% 30.46 in 5.0 mi North - - N/A   Scattered Clouds
2:15 AM 44.6 °F - 41.0 °F 87% 30.46 in 0.5 mi North - - N/A   Mostly Cloudy
2:35 AM 44.6 °F - 41.0 °F 87% 30.46 in 2.5 mi Calm Calm - N/A   Overcast
2:55 AM 46.4 °F - 42.8 °F 87% 30.46 in 3.0 mi North - - N/A   Overcast
3:15 AM 46.4 °F 43.5 °F 42.8 °F 87% 30.45 in 7.0 mi South 5.8 mph - N/A   Scattered Clouds
3:35 AM 46.4 °F - 42.8 °F 87% 30.47 in 6.0 mi North - - N/A   Mostly Cloudy
3:55 AM 44.6 °F - 42.8 °F 93% 30.47 in 5.0 mi North - - N/A   Overcast
4:15 AM 46.4 °F - 42.8 °F 87% 30.47 in 7.0 mi Calm Calm - N/A   Overcast
4:35 AM 46.4 °F 43.5 °F 44.6 °F 93% 30.47 in 3.0 mi ESE 5.8 mph - N/A   Overcast
4:55 AM 48.2 °F - 44.6 °F 87% 30.47 in 5.0 mi SE 5.8 mph - N/A   Overcast
5:15 AM 48.2 °F - 44.6 °F 87% 30.48 in 5.0 mi SE 4.6 mph - N/A   Overcast
5:35 AM 48.2 °F - 46.4 °F 93% 30.47 in 2.5 mi SE 6.9 mph - N/A   Overcast
5:55 AM 48.2 °F - 44.6 °F 87% 30.48 in 7.0 mi South 6.9 mph - N/A   Overcast
6:15 AM 46.4 °F 44.3 °F 44.6 °F 93% 30.48 in 10.0 mi SE 4.6 mph - N/A   Overcast
6:35 AM 48.2 °F - 44.6 °F 87% 30.48 in 10.0 mi SE 5.8 mph - N/A   Overcast
6:55 AM 48.2 °F - 46.4 °F 93% 30.48 in 6.0 mi SSE 4.6 mph - N/A   Overcast
7:15 AM 48.2 °F - 44.6 °F 87% 30.48 in 5.0 mi SE 6.9 mph - N/A   Overcast
7:35 AM 48.2 °F - 46.4 °F 93% 30.49 in 2.5 mi North - - N/A   Overcast
7:55 AM 48.2 °F - 46.4 °F 93% 30.49 in 1.8 mi SSE 5.8 mph - N/A   Overcast
8:15 AM 48.2 °F - 46.4 °F 93% 30.49 in 0.8 mi SSE 5.8 mph - N/A   Overcast
8:35 AM 48.2 °F - 46.4 °F 93% 30.49 in 3.0 mi SSE 4.6 mph - N/A   Overcast
8:55 AM 48.2 °F - 46.4 °F 93% 30.50 in 7.0 mi SSE 3.5 mph - N/A   Overcast
9:15 AM 50.0 °F - 46.4 °F 87% 30.49 in 4.0 mi North - - N/A   Overcast
9:35 AM 50.0 °F - 46.4 °F 87% 30.49 in 2.0 mi North - - N/A   Overcast
9:55 AM 50.0 °F - 46.4 °F 87% 30.50 in 2.5 mi North - - N/A   Overcast
10:15 AM 51.8 °F - 46.4 °F 82% 30.50 in 4.0 mi South 5.8 mph - N/A   Overcast
10:35 AM 51.8 °F - 46.4 °F 82% 30.50 in 5.0 mi SE 5.8 mph - N/A   Overcast
10:55 AM 51.8 °F - 46.4 °F 82% 30.51 in 8.0 mi North - - N/A   Overcast
11:15 AM 53.6 °F - 46.4 °F 77% 30.50 in 9.0 mi North - - N/A   Overcast
11:35 AM 53.6 °F - 46.4 °F 77% 30.49 in 10.0 mi North - - N/A   Scattered Clouds
11:55 AM 53.6 °F - 46.4 °F 77% 30.48 in 10.0 mi North - - N/A   Clear
12:15 PM 55.4 °F - 46.4 °F 72% 30.48 in 10.0 mi SSE 5.8 mph - N/A   Clear
12:35 PM 55.4 °F - 46.4 °F 72% 30.47 in 10.0 mi South 5.8 mph - N/A   Clear
12:55 PM 55.4 °F - 46.4 °F 72% 30.47 in 10.0 mi North - - N/A   Partly Cloudy
1:15 PM 55.4 °F - 46.4 °F 72% 30.47 in 10.0 mi South 5.8 mph - N/A   Mostly Cloudy
1:35 PM 55.4 °F - 46.4 °F 72% 30.46 in 10.0 mi South 6.9 mph - N/A   Mostly Cloudy
1:55 PM 55.4 °F - 46.4 °F 72% 30.46 in 10.0 mi SSE 4.6 mph - N/A   Scattered Clouds
2:15 PM 57.2 °F - 46.4 °F 67% 30.45 in 10.0 mi SSE 5.8 mph - N/A   Mostly Cloudy
2:35 PM 57.2 °F - 46.4 °F 67% 30.45 in 10.0 mi South 5.8 mph - N/A   Mostly Cloudy
2:55 PM 57.2 °F - 46.4 °F 67% 30.46 in 10.0 mi South 5.8 mph - N/A   Overcast
3:15 PM 55.4 °F - 46.4 °F 72% 30.46 in 10.0 mi South 3.5 mph - N/A   Overcast
3:35 PM 55.4 °F - 46.4 °F 72% 30.46 in 10.0 mi South 3.5 mph - N/A   Overcast
3:55 PM 55.4 °F - 46.4 °F 72% 30.45 in 10.0 mi South 3.5 mph - N/A   Overcast
4:15 PM 55.4 °F - 46.4 °F 72% 30.45 in 10.0 mi SSE 3.5 mph - N/A   Mostly Cloudy
4:35 PM 53.6 °F - 44.6 °F 72% 30.45 in 10.0 mi Calm Calm - N/A   Scattered Clouds
4:55 PM 53.6 °F - 44.6 °F 72% 30.43 in 10.0 mi Calm Calm - N/A   Clear
5:15 PM 50.0 °F - 44.6 °F 82% 30.43 in 10.0 mi Calm Calm - N/A   Clear
5:35 PM 48.2 °F - 44.6 °F 87% 30.43 in 10.0 mi Calm Calm - N/A   Clear
5:55 PM 48.2 °F - 44.6 °F 87% 30.44 in 10.0 mi Calm Calm - N/A   Clear
6:15 PM 46.4 °F - 42.8 °F 87% 30.44 in 10.0 mi Calm Calm - N/A   Clear
6:35 PM 46.4 °F - 42.8 °F 87% 30.44 in 10.0 mi Calm Calm - N/A   Clear
6:55 PM 46.4 °F - 42.8 °F 87% 30.42 in 10.0 mi Calm Calm - N/A   Clear
7:15 PM 44.6 °F - 41.0 °F 87% 30.42 in 10.0 mi Calm Calm - N/A   Clear
7:35 PM 44.6 °F - 39.2 °F 81% 30.41 in 10.0 mi Calm Calm - N/A   Clear
7:55 PM 42.8 °F - 39.2 °F 87% 30.41 in 8.0 mi Calm Calm - N/A   Clear
8:15 PM 44.6 °F - 39.2 °F 81% 30.39 in 10.0 mi Calm Calm - N/A   Clear
8:35 PM 42.8 °F - 39.2 °F 87% 30.39 in 10.0 mi Calm Calm - N/A   Clear
8:55 PM 42.8 °F - 39.2 °F 87% 30.39 in 8.0 mi Calm Calm - N/A   Clear
9:15 PM 42.8 °F - 39.2 °F 87% 30.38 in 9.0 mi Calm Calm - N/A   Scattered Clouds
9:35 PM 42.8 °F - 39.2 °F 87% 30.38 in 3.0 mi Calm Calm - N/A   Mostly Cloudy
9:55 PM 44.6 °F - 41.0 °F 87% 30.37 in 2.5 mi Calm Calm - N/A   Overcast
10:15 PM 46.4 °F - 42.8 °F 87% 30.37 in 0.5 mi Calm Calm - N/A   Overcast
10:35 PM 46.4 °F - 44.6 °F 93% 30.36 in 0.8 mi Calm Calm - N/A   Overcast
10:55 PM 46.4 °F 43.5 °F 44.6 °F 93% 30.36 in 4.0 mi NNW 5.8 mph - N/A   Overcast
11:15 PM 46.4 °F 45.2 °F 44.6 °F 93% 30.36 in 10.0 mi NW 3.5 mph - N/A   Overcast
11:35 PM 46.4 °F 44.3 °F 44.6 °F 93% 30.36 in 10.0 mi North 4.6 mph - N/A   Overcast
11:55 PM 46.4 °F - 42.8 °F 87% 30.35 in 10.0 mi Calm Calm - N/A   Overcast